Location: Lecco
(45.8566°N, 9.3977°E)
Time: 05:55:20
(UTC+02:00)

Tiros 1 despin weight - All Passes

Search period start: 08 August 2020 00:00
Search period end: 18 August 2020 00:00
Orbit: 594 x 642 km, 48.2° (Epoch: 07 August)

Date Brightness Start Highest point End Pass type
(mag) Time Alt. Az. Time Alt. Az. Time Alt. Az.
08 Aug - 08:09:38 10° S 08:13:03 21° SE 08:16:26 10° E daylight
08 Aug - 09:49:38 10° WSW 09:54:07 74° SSE 09:58:33 10° ENE daylight
08 Aug - 11:31:21 10° W 11:35:47 64° N 11:40:11 10° E daylight
08 Aug - 13:13:06 10° WNW 13:17:33 87° NNE 13:21:58 10° ESE daylight
08 Aug - 14:54:54 10° W 14:58:48 31° SW 15:02:42 10° SSE daylight
09 Aug - 08:25:08 10° SSW 08:29:16 36° SSE 08:33:21 10° E daylight
09 Aug - 10:06:07 10° WSW 10:10:36 81° NNW 10:15:03 10° ENE daylight
09 Aug - 11:47:57 10° WNW 11:52:23 65° N 11:56:47 10° E daylight
09 Aug - 13:29:37 10° WNW 13:34:01 67° SSW 13:38:23 10° ESE daylight
09 Aug - 15:11:57 10° W 15:14:59 18° SW 15:17:59 10° S daylight
10 Aug - 07:02:02 10° S 07:04:41 15° SE 07:07:20 10° E daylight
10 Aug - 08:41:10 10° SW 08:45:36 58° SSE 08:49:59 10° ENE daylight
10 Aug - 10:22:42 10° W 10:27:10 67° N 10:31:35 10° ENE daylight
10 Aug - 12:04:30 10° WNW 12:08:58 76° NNE 12:13:23 10° E daylight
10 Aug - 13:46:12 10° WNW 13:50:23 42° SSW 13:54:32 10° SE daylight
11 Aug - 07:17:02 10° SSW 07:20:50 27° SE 07:24:37 10° E daylight
11 Aug - 08:57:31 10° WSW 09:02:02 85° SSE 09:06:30 10° ENE daylight
11 Aug - 10:39:19 10° W 10:43:46 63° N 10:48:10 10° E daylight
11 Aug - 12:21:01 10° WNW 12:25:29 83° SSW 12:29:53 10° ESE daylight
11 Aug - 14:03:00 10° W 14:06:37 25° SW 14:10:14 10° SSE daylight
12 Aug - 05:55:26 10° SE 05:56:22 11° SE 05:57:19 10° ESE daylight
12 Aug - 07:32:47 10° SW 07:37:06 45° SSE 07:41:22 10° ENE daylight
12 Aug - 09:14:03 10° W 09:18:33 74° NNW 09:23:01 10° ENE daylight
12 Aug - 10:55:53 10° WNW 11:00:21 68° N 11:04:47 10° E daylight
12 Aug - 12:37:33 10° WNW 12:41:54 56° SSW 12:46:13 10° SE daylight
12 Aug - 14:20:26 10° WSW 14:22:45 14° SW 14:25:03 10° SSW daylight
13 Aug - 06:09:09 10° S 06:12:26 20° SE 06:15:43 10° E daylight
13 Aug - 07:48:58 10° WSW 07:53:29 70° SSE 07:57:56 10° ENE daylight
13 Aug - 09:30:39 10° W 09:35:08 65° N 09:39:34 10° ENE daylight
13 Aug - 11:12:26 10° WNW 11:16:55 83° NNE 11:21:21 10° ESE daylight
13 Aug - 12:54:12 10° W 12:58:14 34° SW 13:02:12 10° SSE daylight
14 Aug - 06:24:32 10° SSW 06:28:39 34° SE 06:32:42 10° E daylight
14 Aug - 08:05:24 10° WSW 08:09:57 85° NNW 08:14:27 10° ENE daylight
14 Aug - 09:47:16 10° W 09:51:44 64° N 09:56:09 10° E daylight
14 Aug - 11:28:57 10° WNW 11:33:24 72° SSW 11:37:47 10° ESE daylight
14 Aug - 13:11:11 10° W 13:14:25 20° SW 13:17:38 10° S daylight
15 Aug - 05:01:41 10° SSE 05:04:06 14° SE 05:06:30 10° ESE visible
15 Aug - 06:40:30 10° SW 06:44:57 54° SSE 06:49:21 10° ENE daylight
15 Aug - 08:21:59 10° W 08:26:30 69° N 08:30:58 10° ENE daylight
15 Aug - 10:03:49 10° WNW 10:08:19 73° N 10:12:45 10° E daylight
15 Aug - 11:45:31 10° WNW 11:49:46 46° SSW 11:53:59 10° SE daylight
15 Aug - 13:29:30 10° WSW 13:30:29 11° SW 13:31:26 10° SW daylight
16 Aug - 05:16:28 10° SSW 05:20:13 25° SE 05:23:56 10° E visible
16 Aug - 06:56:49 10° WSW 07:01:23 81° SSE 07:05:54 10° ENE daylight
16 Aug - 08:38:36 10° W 08:43:06 64° N 08:47:32 10° E daylight
16 Aug - 10:20:20 10° WNW 10:24:51 87° SSW 10:29:17 10° ESE daylight
16 Aug - 12:02:15 10° W 12:06:02 27° SW 12:09:47 10° SSE daylight
17 Aug - 05:32:09 10° SW 05:36:28 41° SSE 05:40:44 10° ENE visible
17 Aug - 07:13:19 10° W 07:17:53 77° NNW 07:22:24 10° ENE daylight
17 Aug - 08:55:11 10° WNW 08:59:42 67° N 09:04:08 10° E daylight
17 Aug - 10:36:52 10° WNW 10:41:17 60° SSW 10:45:38 10° SE daylight
17 Aug - 12:19:30 10° W 12:22:10 16° SW 12:24:49 10° S daylight
